Regional Weather Roundup
Issued by NWS

Home | Current Version | Previous Version | Graphics & Text | Print | Product List | Glossary On
Versions: 1 2 3 4 5 6 7 8 9 10 11 12 13 14 15 16 17 18 19 20 21 22 23 24 25 26 27 28 29 30 31 32 33 34 35 36 37 38 39 40 41 42 43 44 45 46 47 48 49 50
000
ASUS45 KBOU 260007
RWRCO

WEATHER ROUNDUP FOR COLORADO
NATIONAL WEATHER SERVICE DENVER/BOULDER CO
500 PM MST SAT FEB 25 2017

NOTE: "FAIR" INDICATES FEW OR NO CLOUDS BELOW 12000 FEET WITH NO
SIGNIFICANT WEATHER AND/OR OBSTRUCTIONS TO VISIBILITY.

COZ001>005-013-030-031-260100-
...NORTHWEST COLORADO...

CITY           SKY/WX    TMP DP  RH WIND       PRES   REMARKS
CRAIG          CLOUDY    22  12  65 W16       29.87F WCI   8
HAYDEN         CLOUDY    18  10  73 W9G17     29.85S WCI   6
MEEKER         LGT SNOW  23  19  85 SW12      29.87F VSB 1   WCI  12
MOUNT WERNER   NOT AVBL
STEAMBOAT SPGS CLOUDY    17  11  78 CALM      29.84S
WALDEN         NOT AVBL
$$

COZ006>008-011-260100-
...WEST CENTRAL VALLEYS...

CITY           SKY/WX    TMP DP  RH WIND       PRES   REMARKS
GRAND JUNCTION CLOUDY    37  10  32 VRB3      29.90F
MONTROSE       CLOUDY    35   4  27 N13       29.90F WCI  26
EAGLE          MOCLDY    25  12  58 SW14      29.87F WCI  13
RIFLE          CLOUDY    33   9  36 W17G25    29.88F WCI  22
DELTA          PTSUNNY   38   4  23 W10       29.90F
NUCLA          FAIR      36   3  25 SW12G17   29.92F
$$

COZ017>023-064>068-260100-
...SOUTHWEST COLORADO...

CITY           SKY/WX    TMP DP  RH WIND       PRES   REMARKS
DURANGO        FAIR      32   4  30 NW12      29.88F WCI  23
CORTEZ         FAIR      36   6  28 NW9       29.91F
PAGOSA SPRINGS FAIR      30   4  33 W15       29.86F WCI  19
TELLURIDE      PTSUNNY   21   4  48 W5        29.85F WCI  14
WOLF CREEK PAS CLOUDY     5   5 100 SW20G37   29.79S FOG     WCI -15
$$

COZ009-010-012-014-032>034-037-058>063-260100-
...CENTRAL COLORADO...

CITY           SKY/WX    TMP DP  RH WIND       PRES   REMARKS
ASPEN          LGT SNOW  17  13  84 S3        29.82F FOG
BUENA VISTA    CLOUDY    22  -1  36 W10G21    29.79F WCI  11
COPPER MTN     CLOUDY     5  -4  66 MISG      29.65
BERTHOUD PASS  SNOW      -6 -15  65 MISG      29.56F VSB 1/2
COTTONWOOD PAS CLOUDY    18  -2  41 W16G29    29.74S WCI   3
GUNNISON       FAIR      21   9  59 SW9       29.84F WCI  11
KREMMLING      CLOUDY    23  14  68 W10       29.80F WCI  12
LEADVILLE      LGT SNOW   7   2  80 N8        29.72F WCI  -6
MONARCH PASS   LGT SNOW   3  -2  78 SW29G41   29.77F VSB 3/4 WCI -21
SALIDA         CLOUDY    26   0  31 W10G23    29.90S WCI  17
SUNLIGHT       NOT AVBL
WILKERSON PASS FAIR       9  -6  52 SW12G23   29.70F WCI  -6
$$

COZ069>075-260100-
...SAN LUIS VALLEY/SANGRE DE CRISTO MOUNTAINS...

CITY           SKY/WX    TMP DP  RH WIND       PRES   REMARKS
ALAMOSA        FAIR      31   8  38 SW20G28   29.81S WCI  19
LA VETA PASS   CLOUDY    19   5  53 S17G37    29.74S WCI   4
SAGUACHE       FAIR      27   1  33 NW20G28   29.80F WCI  13
$$

COZ035-036-038>040-260100-
...NORTHERN COLORADO FRONT RANGE...

CITY           SKY/WX    TMP DP  RH WIND       PRES   REMARKS
DENVER INTL AP FAIR      33  -2  22 NW23      29.79R WCI  21
DMNS CITY PARK   N/A     32  -6  19 W10G18    29.82R WCI  24
AURORA         PTCLDY    32  -5  20 W16G28    29.79S WCI  21
FRONT RANGE AP MOCLDY    36   1  23 NW21G29   29.79
ERIE MUNI ARPT FAIR      33   5  30 W3        29.80F
BOULDER MUN AP FAIR      32   9  37 W16G25    29.79F WCI  21
CENTENNIAL     MOCLDY    32  -3  22 NW17G23   29.79R WCI  21
BROOMFIELD     MOCLDY    30   1  29 W20G25    29.79S WCI  18
FORT COLLINS   FAIR      33   2  26 W10G17    29.80F WCI  25
LONGMONT       FAIR      32  11  41 W16G28    29.81F WCI  21
$$

COZ041-046-047-076>085-087-088-260100-
...PIKES PEAK/PALMER DIVIDE AND SOUTHERN FOOTHILLS...

CITY           SKY/WX    TMP DP  RH WIND       PRES   REMARKS
COLO. SPRINGS  MOCLDY    36  -7  15 NW20G26   29.78R
A. F. ACADEMY  FAIR      32  -4  21 W15       29.76S WCI  21
SCHRIEVER AFB  FAIR      35  -6  17 W21G26    29.77R WCI  23
ELLICOTT       NOT AVBL
FALCON         FAIR      32  -8  17 W16G23    29.78R WCI  21
FORT CARSON    FAIR      36 -10  13 W20G31    29.78R
LIMON          CLOUDY    35  -5  18 SE8       29.76F WCI  29
MONUMENT HILL  FAIR      28   3  34 NW10G18   29.78R WCI  19
TRINIDAD       FAIR      44  -1  15 W17G26    29.78S
$$

COZ042>045-048>051-090-091-260100-
...NORTHEAST COLORADO...

CITY           SKY/WX    TMP DP  RH WIND       PRES   REMARKS
GREELEY ARPT   FAIR      35  13  40 NW10      29.82S WCI  27
AKRON          MOCLDY    30  18  60 E6        29.80F WCI  24
BURLINGTON     FAIR      36   7  29 E13       29.82F
WRAY           NOT AVBL
STERLING       CLOUDY    32  18  55 CALM      29.82F
HOLYOKE        FAIR      34  19  55 N6        29.85F WCI  29
FORT MORGAN    FAIR      32  15  49 CALM      29.82S
$$

COZ086-089-092>099-260100-
...SOUTHEAST COLORADO...

CITY           SKY/WX    TMP DP  RH WIND       PRES   REMARKS
PUEBLO         FAIR      42  -7  12 W28G38    29.77S
LA JUNTA       FAIR      47  -3  12 W10       29.78F
LAMAR          FAIR      45   2  17 SE3       29.80F
SPRINGFIELD      N/A     43   8  23 S13       29.79F
$$



USA.gov is the U.S. government's official web portal to all federal, state and local government web resources and services.